Regional Weather Roundup
Issued by NWS

Home | Current Version | Previous Version | Graphics & Text | Print | Product List | Glossary Off
Versions: 1 2 3 4 5 6 7 8 9 10 11 12 13 14 15 16 17 18 19 20 21 22 23 24 25 26 27 28 29 30 31 32 33 34 35 36 37 38 39 40 41 42 43 44 45 46 47 48 49 50

896
ASUS43 KTOP 261108
RWRKS

WEATHER ROUNDUP FOR KANSAS
NATIONAL WEATHER SERVICE GOODLAND KS
600 AM CDT WED JUL 26 2017

NOTE:  "FAIR" INDICATES FEW OR NO CLOUDS BELOW 12,000 FEET WITH NO
SIGNIFICANT WEATHER AND/OR OBSTRUCTIONS TO VISIBILITY.

KSZ001>006-013>018-027>032-041>047-261200-
NORTHWEST KANSAS

CITY           SKY/WX    TMP DP  RH WIND       PRES   REMARKS
GOODLAND       CLOUDY    70  62  76 NW12      29.98R
HAYS           CLOUDY    80  69  69 S13       29.89F
HILL CITY      CLOUDY    76  70  82 S3        29.89S
RUSSELL        CLOUDY    78  70  76 SE16      29.90F
$$

KSZ061>065-074>080-084>089-261200-
SOUTHWEST KANSAS

CITY           SKY/WX    TMP DP  RH WIND       PRES   REMARKS
DODGE CITY     CLOUDY    79  65  62 S14       29.96S
ELKHART          N/A     70  51  51 S9          N/A
GARDEN CITY    PTCLDY    78  62  57 S14G23    29.95S
GREAT BEND     CLOUDY    80  70  71 S20G28    29.91S
LIBERAL        CLOUDY    78  62  57 MISG      29.99S
PRATT          PTCLDY    76  65  69 S17       29.96S
$$

KSZ066>073-081>083-090>101-261200-
SOUTHEAST KANSAS

CITY           SKY/WX    TMP DP  RH WIND       PRES   REMARKS
CHANUTE        PTCLDY    78  73  84 S9        30.02S
COFFEYVILLE    PTCLDY    77  74  90 S6        30.03R
HUTCHINSON     MOCLDY    82  69  64 S14       29.95S
MEDICINE LODGE   N/A     80  66  62 S9        29.95F
NEWTON         CLOUDY    79  70  74 S15       29.98S
PARSONS        PTCLDY    77  73  87 S5        30.03R
WICHITA INTL   PTCLDY    80  72  76 S16       29.97S
WICHITA JABRA  PTCLDY    79  71  76 S13       29.97F
WICHITA MCCONL PTCLDY    79  70  72 SW14      29.98S
WINFIELD       CLEAR     78  71  79 S10       30.00S
$$

KSZ007>012-019>026-033>040-048>060-102>105-261200-
NORTHEAST KANSAS

CITY           SKY/WX    TMP DP  RH WIND       PRES   REMARKS
CONCORDIA      CLOUDY    79  73  82 SE5       29.96S
EMPORIA        CLOUDY    76  72  87 S14       29.99R
LAWRENCE       CLOUDY    78  74  87 E5        29.99R
MANHATTAN      TSTM      77  73  87 VRB6      29.99R FOG
MARYSVILLE     TSTM      77  72  83 S12       29.97R
OLATHE IND     MOCLDY    77  73  87 S7        30.01S
OLATHE EXE     MOCLDY    77  74  90 SW6       30.02R
SALINA         LGT RAIN  84  71  65 S18G24    29.91F
TOPEKA BILLARD CLOUDY    80  74  81 S7        29.98R
TOPEKA FORBES  MOCLDY    80  74  81 S9        29.98S
$$




USA.gov is the U.S. government's official web portal to all federal, state and local government web resources and services.